Stations météo

réclame
Mon MeteoGroup
Norderney, Allemagne (10113): Température de l'air & dewpoint: 12.11.2017 00:00:00 - 18.11.2017 00:00:00 (CET)Norderney, Allemagne (10113): Température de l'air 5cm & Température de l'air -5cm: 12.11.2017 00:00:00 - 18.11.2017 00:00:00 (CET)Norderney, Allemagne (10113): Température de l'air -20cm & Température de l'air -100cm: 12.11.2017 00:00:00 - 18.11.2017 00:00:00 (CET)Norderney, Allemagne (10113): Vitesse du vent & gusts: 12.11.2017 00:00:00 - 18.11.2017 00:00:00 (CET)Norderney, Allemagne (10113): Direction du vent: 12.11.2017 00:00:00 - 18.11.2017 00:00:00 (CET)Norderney, Allemagne (10113): reduced air pressure: 12.11.2017 00:00:00 - 18.11.2017 00:00:00 (CET)Norderney, Allemagne (10113): visibility: 12.11.2017 00:00:00 - 18.11.2017 00:00:00 (CET)Norderney, Allemagne (10113): Ensoleillement: 12.11.2017 00:00:00 - 18.11.2017 00:00:00 (CET)Norderney, Allemagne (10113): Quantités de précipitations: 12.11.2017 00:00:00 - 18.11.2017 00:00:00 (CET)
Date & Time tt [°C] td [°C] tt 5cm [°C] tt -5cm [°C] tt -20cm [°C] tt -100cm [°C] ff [km/h] ff [knt] fx [km/h] fx [knt] dd ppp [hPa] vv [km] sd [min] rr [mm]
18.11.2017 00:00:00 - - - - - - - - - - - - - - -
17.11.2017 23:00:00 7,9 5,5 6,8 6,4 7,6 10,3 26 14 41 22 SW 1020,8 - 0 0,0
17.11.2017 22:00:00 7,5 5,3 6,3 6,6 7,7 10,3 23 12 35 19 SW 1021,5 - 0 0,6
17.11.2017 21:00:00 7,6 5,2 6,7 6,4 7,8 10,3 22 12 40 22 SW 1022,0 - 0 0,0
17.11.2017 20:00:00 7,9 4,5 6,9 6,6 7,9 10,3 19 11 33 18 WSW 1022,4 - 0 0,0
17.11.2017 19:00:00 7,7 5,0 6,5 6,9 8,1 10,4 21 11 37 20 SW 1023,1 - 0 0,1
17.11.2017 18:00:00 7,8 5,4 6,9 7,2 8,2 10,4 16 9 36 19 WSW 1023,6 - 0 0,0
17.11.2017 17:00:00 8,3 4,9 7,3 7,4 8,3 10,4 19 11 33 18 WSW 1023,9 - 0 0,0
17.11.2017 16:00:00 8,5 5,5 7,5 8,0 8,3 10,4 19 10 33 18 SW 1023,9 - 22 0,0
17.11.2017 15:00:00 9,0 3,2 8,0 8,5 8,3 10,4 20 11 36 20 WSW 1024,4 - 15 0,1
17.11.2017 14:00:00 9,4 4,5 10,0 8,8 8,1 10,4 17 9 31 17 WSW 1024,8 - 21 0,0
17.11.2017 13:00:00 9,9 4,7 10,8 9,0 7,8 10,4 18 10 32 18 W 1025,2 - 59 0,0
17.11.2017 12:00:00 10,0 3,7 11,4 8,4 7,5 10,4 26 14 38 20 W 1025,4 - 57 0,0
17.11.2017 11:00:00 9,8 4,1 10,7 7,5 7,3 10,4 13 7 31 17 WSW 1025,7 - 58 0,0
17.11.2017 10:00:00 9,6 4,2 9,0 6,2 7,3 10,4 24 13 31 17 WNW 1025,7 - 58 0,0
17.11.2017 09:00:00 9,3 4,0 8,3 5,7 7,4 10,4 13 7 29 16 W 1025,5 - 13 0,0
17.11.2017 08:00:00 9,2 3,2 7,9 5,8 7,4 10,3 24 13 38 21 WNW 1025,3 - 0 0,0
17.11.2017 07:00:00 8,8 3,9 6,7 5,6 7,6 10,3 16 9 27 15 NW 1024,8 - 0 0,0
17.11.2017 06:00:00 8,9 2,5 7,1 5,9 7,8 10,3 25 13 32 18 NW 1024,7 - 0 0,0
17.11.2017 05:00:00 9,0 2,6 7,0 5,9 7,9 10,3 25 13 37 20 NNW 1024,4 - 0 0,0
17.11.2017 04:00:00 9,1 1,8 7,4 6,4 8,1 10,3 30 16 37 20 NNW 1024,0 - 0 0,0
17.11.2017 03:00:00 9,3 2,9 7,2 6,3 8,3 10,3 28 15 39 21 NNW 1023,6 - 0 0,0
17.11.2017 02:00:00 9,4 3,3 7,4 6,6 8,6 10,3 30 16 41 22 NNW 1023,1 - 0 0,0
17.11.2017 01:00:00 9,6 2,3 7,6 7,0 8,8 10,3 36 19 46 25 NNW 1022,7 - 0 0,0
17.11.2017 00:00:00 9,7 4,1 7,7 7,5 9,0 10,3 36 20 58 31 NNW 1022,2 - 0 0,1
16.11.2017 23:00:00 10,0 4,7 7,7 8,0 9,2 10,3 33 18 46 25 NNW 1021,6 - 0 0,0
16.11.2017 22:00:00 10,1 6,2 8,2 8,8 9,3 10,3 42 23 50 27 NNW 1021,1 - 0 0,2
16.11.2017 21:00:00 9,7 7,1 8,5 9,0 9,3 10,3 31 17 50 27 NW 1020,2 - 0 0,1
16.11.2017 20:00:00 9,6 8,6 8,9 9,3 9,4 10,3 32 17 49 27 W 1019,2 - 0 0,2
16.11.2017 19:00:00 9,8 9,2 9,4 9,3 9,4 10,3 21 11 39 21 SW 1019,0 - 0 0,0
16.11.2017 18:00:00 9,6 8,9 9,2 9,3 9,4 10,3 22 12 33 18 SSW 1018,9 - 0 0,0
16.11.2017 17:00:00 9,4 8,9 9,0 9,4 9,4 10,3 20 11 34 18 SSW 1019,0 - 0 0,1
16.11.2017 16:00:00 9,6 8,7 9,3 9,6 9,4 10,2 18 10 32 17 SSW 1019,1 - 0 0,0
16.11.2017 15:00:00 9,6 9,0 9,3 9,7 9,3 10,2 16 9 32 17 SSW 1019,4 - 0 0,0
16.11.2017 14:00:00 9,4 9,1 9,4 9,7 9,3 10,2 17 9 30 16 SSW 1019,7 - 0 0,0
16.11.2017 13:00:00 9,1 9,0 9,2 9,6 9,2 10,2 14 8 30 16 SSW 1020,2 - 0 0,0
16.11.2017 12:00:00 9,1 8,9 9,1 9,4 9,1 10,2 18 10 32 17 SSW 1020,9 - 0 0,0
16.11.2017 11:00:00 9,1 8,8 9,0 9,1 9,1 10,2 20 11 34 18 S 1021,0 - 0 0,1
16.11.2017 10:00:00 9,1 8,8 8,9 9,0 9,0 10,2 17 9 31 17 S 1021,4 - 0 0,3
16.11.2017 09:00:00 8,9 8,8 8,7 8,9 9,0 10,2 16 9 29 16 S 1021,3 - 0 0,0
16.11.2017 08:00:00 8,8 8,7 8,7 8,8 9,1 10,2 20 11 31 17 S 1021,1 - 0 0,1
16.11.2017 07:00:00 8,7 8,5 8,6 8,8 9,1 10,2 21 11 31 17 S 1021,0 - 0 0,0
16.11.2017 06:00:00 8,7 8,6 8,7 8,8 9,1 10,2 16 9 28 15 S 1021,2 - 0 0,0
16.11.2017 05:00:00 8,7 8,6 8,6 8,9 9,1 10,1 20 11 31 17 S 1021,7 - 0 0,0
16.11.2017 04:00:00 8,7 8,5 8,7 8,9 9,2 10,1 18 10 29 16 S 1022,3 - 0 0,1
16.11.2017 03:00:00 8,7 8,5 8,5 8,9 9,2 10,1 18 10 29 16 S 1022,5 - 0 0,1
16.11.2017 02:00:00 8,5 8,4 8,4 8,9 9,3 10,1 14 8 23 12 S 1022,9 - 0 0,0
16.11.2017 01:00:00 8,6 8,4 8,5 9,0 9,3 10,1 16 8 24 13 S 1023,4 - 0 0,0
16.11.2017 00:00:00 8,7 8,7 8,6 9,2 9,4 10,1 13 7 19 11 S 1023,8 - 0 0,0
15.11.2017 23:00:00 9,0 9,0 9,0 9,3 9,4 10,1 11 6 19 10 S 1024,1 - 0 0,0
15.11.2017 22:00:00 9,2 9,1 9,0 9,4 9,4 10,1 12 6 19 10 S 1024,3 - 0 0,0
15.11.2017 21:00:00 9,3 9,1 9,2 9,5 9,5 10,1 6 4 12 7 S 1024,4 - 0 0,1
15.11.2017 20:00:00 9,5 9,2 9,2 9,5 9,5 10,1 5 3 10 6 SE 1024,4 - 0 0,0
15.11.2017 19:00:00 9,4 9,2 9,1 9,6 9,6 10,1 3 2 5 3 ESE 1024,6 - 0 0,0
15.11.2017 18:00:00 9,5 9,2 9,2 9,9 9,7 10,1 4 2 6 3 E 1024,5 - 0 0,0
15.11.2017 17:00:00 9,8 9,2 9,5 10,2 9,7 10,1 2 1 8 4 S 1024,4 - 0 0,0
15.11.2017 16:00:00 10,1 9,2 9,9 10,6 9,7 10,1 5 3 11 6 SW 1024,3 - 0 0,0
15.11.2017 15:00:00 10,0 9,5 10,2 10,9 9,5 10,1 6 4 14 7 SW 1024,2 - 0 0,0
15.11.2017 14:00:00 9,9 9,4 10,2 11,1 9,3 10,1 10 5 15 8 SW 1024,0 - 0 0,0
15.11.2017 13:00:00 9,8 9,2 10,4 11,0 9,0 10,1 11 6 16 9 SW 1024,1 - 0 0,0
15.11.2017 12:00:00 9,9 9,1 10,3 10,5 8,8 10,1 9 5 15 8 SW 1023,9 - 0 0,0
15.11.2017 11:00:00 9,8 9,4 9,7 9,5 8,6 10,1 9 5 13 7 SW 1023,9 - 0 0,4
15.11.2017 10:00:00 9,3 9,2 9,3 9,2 8,5 10,1 10 5 20 11 NW 1023,5 - 0 1,4
15.11.2017 09:00:00 10,0 9,8 9,8 9,0 8,4 10,1 15 8 31 17 W 1022,9 - 0 1,4
15.11.2017 08:00:00 9,6 9,2 9,3 8,8 8,4 10,1 16 9 32 17 WSW 1022,1 - 0 0,3
15.11.2017 07:00:00 9,5 9,2 9,2 8,7 8,3 10,1 20 11 32 18 SW 1021,7 - 0 0,0
15.11.2017 06:00:00 9,5 9,3 9,2 8,7 8,2 10,1 19 10 31 17 SW 1021,5 - 0 0,0
15.11.2017 05:00:00 9,7 9,4 9,4 8,6 8,1 10,1 23 12 32 18 SW 1021,4 - 0 0,0
15.11.2017 04:00:00 9,6 9,3 9,2 8,4 8,1 10,1 21 11 35 19 SW 1021,2 - 0 0,0
15.11.2017 03:00:00 9,2 9,0 9,0 8,3 8,0 10,1 20 11 31 17 SW 1021,3 - 0 0,0
15.11.2017 02:00:00 8,8 8,6 8,6 8,3 8,0 10,1 18 10 32 18 SSW 1021,3 - 0 0,5
15.11.2017 01:00:00 9,0 8,8 8,7 8,2 7,9 10,1 19 11 31 17 SSW 1021,4 - 0 0,6
15.11.2017 00:00:00 8,9 8,7 8,7 8,0 7,8 10,1 14 7 24 13 SSW 1021,5 - 0 0,1
14.11.2017 23:00:00 9,0 9,0 8,7 7,9 7,7 10,1 15 8 25 13 SW 1021,4 - 0 0,0
14.11.2017 22:00:00 9,0 8,8 8,7 7,5 7,7 10,1 15 8 23 12 SW 1021,3 - 0 0,0
14.11.2017 21:00:00 8,8 8,5 8,0 7,4 7,8 10,1 16 9 23 13 SW 1021,2 - 0 0,0
14.11.2017 20:00:00 9,1 8,6 8,3 7,4 7,9 10,1 13 7 22 12 WSW 1020,8 - 0 0,0
14.11.2017 19:00:00 9,3 8,8 7,9 7,7 7,9 10,1 12 7 21 12 SW 1020,4 - 0 0,0
14.11.2017 18:00:00 9,0 8,4 8,7 8,3 7,9 10,1 14 7 21 11 SW 1020,0 - 0 0,0
14.11.2017 17:00:00 9,7 9,1 9,2 8,4 7,7 10,1 9 5 26 14 W 1019,6 - 0 0,2
14.11.2017 16:00:00 9,2 8,9 8,9 8,5 7,6 10,1 17 9 32 17 SW 1018,9 - 0 0,5
14.11.2017 15:00:00 9,0 8,7 8,8 8,3 7,4 10,1 23 12 42 23 WSW 1018,4 - 0 0,4
14.11.2017 14:00:00 8,6 8,2 8,4 8,0 7,2 10,1 24 13 45 24 WSW 1018,0 - 0 0,0
14.11.2017 13:00:00 7,9 7,4 7,7 7,5 7,0 10,1 26 14 49 27 SW 1017,9 - 0 0,0
14.11.2017 12:00:00 7,8 6,3 7,7 7,0 6,9 10,1 31 17 51 28 SW 1017,9 - 0 0,0
14.11.2017 11:00:00 8,1 4,8 7,8 6,6 6,8 10,1 28 15 49 26 SW 1018,0 - 0 0,0
14.11.2017 10:00:00 7,8 4,3 7,5 6,4 6,7 10,1 30 16 49 26 SW 1018,0 - 0 0,0
14.11.2017 09:00:00 7,6 4,2 7,3 6,2 6,7 10,2 28 15 46 25 SW 1018,0 - 0 0,0
14.11.2017 08:00:00 7,5 4,4 7,0 6,0 6,7 10,2 27 15 47 25 SW 1018,3 - 0 0,0
14.11.2017 07:00:00 7,4 4,7 6,9 6,0 6,6 10,2 26 14 40 22 SW 1018,3 - 0 0,0
14.11.2017 06:00:00 7,1 4,5 6,4 5,9 6,6 10,2 26 14 41 22 SW 1018,8 - 0 0,0
14.11.2017 05:00:00 7,1 4,7 6,2 5,8 6,6 10,2 22 12 35 19 SW 1019,2 - 0 0,2
14.11.2017 04:00:00 7,3 4,3 5,9 5,7 6,6 10,2 16 9 35 19 WSW 1019,7 - 0 0,1
14.11.2017 03:00:00 7,1 4,2 6,2 5,4 6,7 10,2 16 9 27 14 SW 1020,0 - 0 0,0
14.11.2017 02:00:00 7,7 3,2 5,7 5,5 6,8 10,2 16 9 29 16 WSW 1020,2 - 0 0,1
14.11.2017 01:00:00 8,0 3,6 6,1 5,3 6,9 10,2 6 4 32 18 WSW 1020,2 - 0 0,0
14.11.2017 00:00:00 8,2 3,6 6,2 5,3 7,0 10,2 17 9 26 14 WNW 1020,1 - 0 0,0
13.11.2017 23:00:00 8,1 2,3 5,7 5,8 7,2 10,2 11 6 46 25 N 1020,3 - 0 0,0
13.11.2017 22:00:00 8,8 3,8 7,8 6,0 7,3 10,2 29 16 39 21 NW 1020,0 - 0 0,0
13.11.2017 21:00:00 8,5 4,3 7,2 6,3 7,4 10,2 19 11 32 18 NNE 1019,9 - 0 0,0
13.11.2017 20:00:00 8,8 4,7 7,2 6,6 7,6 10,2 32 17 46 25 N 1019,5 - 0 0,0
13.11.2017 19:00:00 8,7 3,4 6,7 6,7 7,7 10,2 42 23 49 27 NNW 1019,0 - 0 0,0
13.11.2017 18:00:00 9,0 5,0 7,4 7,1 7,8 10,2 38 21 53 29 NNW 1018,6 - 0 0,4
13.11.2017 17:00:00 9,1 3,1 6,7 7,2 7,9 10,2 24 13 45 24 N 1018,0 - 0 0,3
13.11.2017 16:00:00 8,0 3,8 7,5 8,1 7,9 10,2 43 23 56 30 NW 1017,5 - 1 0,1
13.11.2017 15:00:00 9,1 4,5 8,3 8,8 7,8 10,2 34 18 43 23 N 1016,6 - 39 0,0
13.11.2017 14:00:00 9,8 4,5 10,8 8,8 7,6 10,3 28 15 33 18 NNW 1016,3 - 46 0,0
13.11.2017 13:00:00 10,0 4,6 11,7 8,6 7,3 10,3 23 12 35 19 N 1016,2 - 45 0,0
13.11.2017 12:00:00 10,2 4,2 11,6 8,1 7,0 10,3 29 15 39 21 N 1015,6 - 49 0,0
13.11.2017 11:00:00 10,1 5,1 11,3 7,3 6,8 10,3 29 16 45 24 N 1015,0 - 56 0,0
13.11.2017 10:00:00 9,7 4,1 8,4 6,6 6,7 10,3 38 21 48 26 N 1014,5 - 16 0,0
13.11.2017 09:00:00 9,8 3,6 8,1 6,1 6,7 10,3 40 21 49 27 N 1013,6 - 0 0,0
13.11.2017 08:00:00 9,7 3,8 8,5 6,0 6,7 10,3 39 21 51 28 N 1012,3 - 0 0,0
13.11.2017 07:00:00 9,7 3,1 7,7 6,0 6,7 10,3 42 23 56 30 N 1011,7 - 0 0,0
13.11.2017 06:00:00 9,6 4,6 8,0 6,1 6,7 10,3 46 25 60 32 N 1010,9 - 0 0,0
13.11.2017 05:00:00 9,8 4,2 8,7 6,3 6,7 10,4 46 25 62 33 N 1010,0 - 0 0,0
13.11.2017 04:00:00 9,8 4,5 8,5 6,2 6,7 10,4 50 27 66 35 N 1009,0 - 0 0,0
13.11.2017 03:00:00 9,9 4,1 8,3 6,1 6,7 10,4 50 27 63 34 N 1008,1 13 0 0,0
13.11.2017 02:00:00 9,8 4,0 8,2 6,0 6,7 10,4 49 26 61 33 N 1007,3 20 0 0,0
13.11.2017 01:00:00 9,8 4,2 7,9 6,1 6,6 10,4 49 26 62 34 N 1006,4 19 0 0,0
13.11.2017 00:00:00 9,9 4,3 7,1 6,2 6,6 10,4 52 28 60 33 N 1005,4 23 0 0,2
12.11.2017 23:00:00 9,3 5,0 6,8 5,7 6,6 10,4 29 16 60 32 NNW 1004,9 20 0 0,8
12.11.2017 22:00:00 8,5 5,0 6,2 5,7 6,7 10,4 16 9 32 18 NNW 1004,3 12 0 0,1
12.11.2017 21:00:00 7,9 3,7 5,5 5,9 6,7 10,4 19 10 42 23 N 1003,8 23 0 0,4
12.11.2017 20:00:00 8,6 4,3 6,9 5,8 6,7 10,5 29 16 53 29 N 1002,6 13 0 0,1
12.11.2017 19:00:00 8,3 5,1 6,3 5,9 6,8 10,5 22 12 39 21 N 1001,5 10 0 0,0
12.11.2017 18:00:00 7,4 4,3 5,5 5,9 6,8 10,5 16 9 35 19 N 1000,7 10 0 0,5
12.11.2017 17:00:00 7,0 4,5 6,0 6,2 6,9 10,5 24 13 36 20 N 999,9 10 0 0,0
12.11.2017 16:00:00 7,2 3,7 6,2 6,5 6,8 10,5 19 11 22 12 N 999,1 12 0 0,0
12.11.2017 15:00:00 6,4 4,2 5,7 6,5 6,8 10,5 10 5 20 11 NW 998,7 12 0 0,0
12.11.2017 14:00:00 5,3 3,1 4,7 6,2 6,8 10,5 7 4 21 11 SW 998,5 30 0 4,3
12.11.2017 13:00:00 6,0 4,0 5,2 6,7 6,7 10,6 7 4 26 14 W 998,8 6 0 0,2
12.11.2017 12:00:00 6,1 3,2 6,2 7,0 6,5 10,6 18 10 29 16 SW 998,7 70 11 0,0
12.11.2017 11:00:00 5,9 3,5 6,3 6,0 6,3 10,6 19 11 31 17 SW 999,1 59 0 0,0
12.11.2017 10:00:00 5,9 3,9 5,2 5,5 6,3 10,6 12 7 43 23 W 999,9 40 0 0,0
12.11.2017 09:00:00 6,6 3,8 6,0 5,3 6,3 10,6 22 12 39 21 SW 1000,3 69 0 0,0
12.11.2017 08:00:00 6,4 2,9 5,7 5,2 6,4 10,6 25 13 48 26 WSW 1000,6 54 0 0,0
12.11.2017 07:00:00 6,6 3,5 6,0 5,2 6,4 10,6 23 12 39 21 SW 1001,1 64 0 0,0
12.11.2017 06:00:00 7,1 4,1 6,2 5,4 6,4 10,6 20 11 35 19 SSW 1002,1 47 0 0,0
12.11.2017 05:00:00 7,8 1,7 6,9 5,4 6,4 10,7 32 17 51 28 W 1002,9 24 0 0,0
12.11.2017 04:00:00 7,8 3,0 5,4 5,3 6,5 10,7 19 10 56 30 W 1003,5 9 0 0,0
12.11.2017 03:00:00 8,2 3,8 6,8 5,3 6,5 10,7 28 15 49 26 W 1004,1 13 0 0,0
12.11.2017 02:00:00 8,4 3,9 7,0 5,2 6,6 10,7 34 18 46 25 WNW 1004,4 11 0 0,0
12.11.2017 01:00:00 8,8 3,1 7,2 5,3 6,6 10,7 34 18 46 25 WNW 1004,8 20 0 0,0
12.11.2017 00:00:00 8,6 2,5 7,0 5,4 6,7 10,7 36 19 47 25 WNW 1005,2 27 0 0,0

tt = Température de l'air
td = dewpoint
tt 5cm = Température de l'air 5cm
tt -5cm = Température de l'air -5cm
tt -20cm = Température de l'air -20cm
tt -100cm = Température de l'air -100cm
ff = Vitesse du vent
fx = gusts
dd = Direction du vent
ppp = reduced air pressure
vv = visibility
sd = Ensoleillement
rr = Quantités de précipitations

stations d'obs. à proximité